Weather History for Grayling, MI

Change the Weather History Date:

Sunday, November 13, 2011

  Actual Average (KHTL) Record (KHTL)
Temperature  
Mean Temperature 50 °F 36 °F  
Max Temperature 55 °F 44 °F 59 °F (1999)
Min Temperature 46 °F 28 °F 11 °F (1986)
Degree Days  
Heating Degree Days 14 29  
Month to date heating degree days 350  
Since 1 July heating degree days 1328  
Moisture  
Dew Point 42 °F    
Average Humidity 73    
Maximum Humidity 94    
Minimum Humidity 62    
Precipitation  
Precipitation 0.00 in 0.08 in 0.77 in (1980)
Month to date precipitation 1.02  
Year to date precipitation 25.80  
Snow  
Snow 0.00 in 0.30 in 2.00 in (1959)
Month to date snowfall 2.3  
Since 1 July snowfall 2.9  
Snow Depth -    
Sea Level Pressure  
Sea Level Pressure 29.41 in    
Wind  
Wind Speed 9 mph (South)    
Max Wind Speed 15 mph    
Max Gust Speed 32 mph    
Visibility 10 miles    
Events Rain    
T = Trace of Precipitation, MM = Missing Value Source: NWS Daily Summary

Daily Weather History Graph

Daily Weather History Graph

Search for Another Location

Airport:

Trip Planner

Search our weather history database for the weather conditions in past years. The results will help you decide how hot, cold, wet, or windy it might be!

Date:

Astronomy

Nov. 13, 2011 Rise Set
Actual Time 7:32 AM EST 5:13 PM EST
Civil Twilight 7:01 AM EST 5:44 PM EST
Nautical Twilight 6:26 AM EST 6:19 PM EST
Astronomical Twilight 5:51 AM EST 6:54 PM EST
Moon 7:16 PM EST (11/13) 10:09 AM EST (11/13)
Length of Visible Light 10h 43m
Length of Day
9h 40m
Waning Gibbous, 93% of the Moon is Illuminated
Nov 13
Waning Gibbous
Nov 18
Last Quarter
Nov 25
New
Dec 2
First Quarter
Dec 10
Full

Hourly Weather History & Observations

Time (EST) Temp. Windchill Dew Point Humidity Pressure Visibility Wind Dir Wind Speed Gust Speed Precip Events Conditions
12:15 AM 46.4 °F 42.9 °F 35.6 °F 66% 29.61 in 10.0 mi South 6.9 mph - N/A   Clear
12:34 AM 46.4 °F 41.5 °F 33.8 °F 62% 29.60 in 10.0 mi South 10.4 mph - N/A   Clear
12:54 AM 46.4 °F 43.5 °F 33.8 °F 62% 29.59 in 10.0 mi South 5.8 mph - N/A   Clear
1:34 AM 46.4 °F 42.4 °F 33.8 °F 62% 29.58 in 10.0 mi South 8.1 mph - N/A   Clear
1:55 AM 46.4 °F 42.9 °F 33.8 °F 62% 29.57 in 10.0 mi South 6.9 mph - N/A   Clear
2:15 AM 46.4 °F 44.3 °F 33.8 °F 62% 29.56 in 10.0 mi South 4.6 mph - N/A   Clear
2:34 AM 46.4 °F 43.5 °F 33.8 °F 62% 29.55 in 10.0 mi South 5.8 mph - N/A   Clear
3:15 AM 46.4 °F 42.9 °F 35.6 °F 66% 29.54 in 10.0 mi South 6.9 mph - N/A   Mostly Cloudy
3:34 AM 46.4 °F 43.5 °F 35.6 °F 66% 29.53 in 10.0 mi SSE 5.8 mph - N/A   Overcast
3:55 AM 46.4 °F 41.5 °F 35.6 °F 66% 29.52 in 10.0 mi SSE 10.4 mph - N/A   Overcast
4:14 AM 46.4 °F 42.4 °F 35.6 °F 66% 29.51 in 10.0 mi SSE 8.1 mph - N/A   Mostly Cloudy
4:34 AM 46.4 °F 41.9 °F 35.6 °F 66% 29.50 in 10.0 mi SSE 9.2 mph - N/A   Overcast
4:55 AM 46.4 °F 41.5 °F 35.6 °F 66% 29.50 in 10.0 mi SSE 10.4 mph - N/A   Overcast
5:14 AM 46.4 °F 41.5 °F 35.6 °F 66% 29.49 in 10.0 mi South 10.4 mph - N/A   Overcast
5:34 AM 46.4 °F 41.1 °F 35.6 °F 66% 29.48 in 10.0 mi SSE 11.5 mph 18.4 mph N/A   Overcast
5:55 AM 46.4 °F 41.1 °F 37.4 °F 71% 29.47 in 10.0 mi South 11.5 mph 20.7 mph N/A   Overcast
6:35 AM 48.2 °F - 39.2 °F 71% 29.47 in 10.0 mi SSE 11.5 mph 17.3 mph N/A   Overcast
6:55 AM 48.2 °F - 41.0 °F 76% 29.47 in 10.0 mi SSE 15.0 mph 23.0 mph N/A   Overcast
7:14 AM 48.2 °F - 39.2 °F 71% 29.46 in 10.0 mi South 12.7 mph 19.6 mph N/A   Overcast
7:35 AM 50.0 °F - 41.0 °F 71% 29.45 in 10.0 mi SSE 12.7 mph 17.3 mph N/A   Overcast
7:55 AM 50.0 °F - 41.0 °F 71% 29.45 in 10.0 mi South 9.2 mph 18.4 mph N/A   Overcast
8:14 AM 50.0 °F - 41.0 °F 71% 29.45 in 10.0 mi SSE 10.4 mph 19.6 mph N/A   Overcast
8:35 AM 50.0 °F - 41.0 °F 71% 29.45 in 10.0 mi South 10.4 mph 17.3 mph N/A   Overcast
8:55 AM 51.8 °F - 42.8 °F 71% 29.44 in 10.0 mi SSE 12.7 mph 17.3 mph N/A   Overcast
9:35 AM 51.8 °F - 42.8 °F 71% 29.43 in 10.0 mi South 9.2 mph - N/A   Overcast
9:54 AM 51.8 °F - 42.8 °F 71% 29.42 in 10.0 mi South 8.1 mph 17.3 mph N/A   Overcast
10:15 AM 51.8 °F - 42.8 °F 71% 29.41 in 10.0 mi South 12.7 mph 21.9 mph N/A   Overcast
10:35 AM 51.8 °F - 42.8 °F 71% 29.41 in 10.0 mi South 9.2 mph 18.4 mph N/A   Overcast
10:54 AM 51.8 °F - 42.8 °F 71% 29.41 in 10.0 mi South 9.2 mph 18.4 mph N/A   Overcast
11:35 AM 53.6 °F - 44.6 °F 72% 29.40 in 10.0 mi South 11.5 mph 23.0 mph N/A   Overcast
11:54 AM 53.6 °F - 44.6 °F 72% 29.39 in 10.0 mi SSW 9.2 mph 20.7 mph N/A   Overcast
12:15 PM 53.6 °F - 44.6 °F 72% 29.39 in 10.0 mi South 10.4 mph 18.4 mph N/A   Overcast
12:35 PM 53.6 °F - 44.6 °F 72% 29.38 in 10.0 mi South 10.4 mph 19.6 mph N/A   Overcast
12:54 PM 55.4 °F - 44.6 °F 67% 29.37 in 10.0 mi South 12.7 mph 19.6 mph N/A   Overcast
1:15 PM 53.6 °F - 44.6 °F 72% 29.38 in 10.0 mi South 10.4 mph 21.9 mph N/A   Overcast
1:34 PM 53.6 °F - 44.6 °F 72% 29.37 in 10.0 mi South 13.8 mph 21.9 mph N/A   Overcast
1:54 PM 55.4 °F - 46.4 °F 72% 29.37 in 10.0 mi SSW 11.5 mph 19.6 mph N/A   Overcast
2:15 PM 55.4 °F - 46.4 °F 72% 29.36 in 10.0 mi SSW 13.8 mph 20.7 mph N/A   Overcast
2:34 PM 55.4 °F - 44.6 °F 67% 29.36 in 10.0 mi South 8.1 mph - N/A   Overcast
2:55 PM 55.4 °F - 46.4 °F 72% 29.35 in 10.0 mi South 13.8 mph 18.4 mph N/A   Overcast
3:15 PM 53.6 °F - 44.6 °F 72% 29.34 in 10.0 mi South 9.2 mph 17.3 mph N/A   Overcast
3:34 PM 53.6 °F - 44.6 °F 72% 29.33 in 10.0 mi South 12.7 mph 17.3 mph N/A   Overcast
3:55 PM 53.6 °F - 44.6 °F 72% 29.32 in 10.0 mi South 11.5 mph 17.3 mph N/A   Overcast
4:15 PM 53.6 °F - 44.6 °F 72% 29.32 in 10.0 mi South 10.4 mph 16.1 mph N/A   Light Drizzle
4:34 PM 53.6 °F - 46.4 °F 77% 29.31 in 10.0 mi South 10.4 mph 17.3 mph N/A   Light Drizzle
4:55 PM 53.6 °F - 46.4 °F 77% 29.30 in 10.0 mi South 8.1 mph 17.3 mph N/A Rain Light Rain
5:15 PM 53.6 °F - 46.4 °F 77% 29.30 in 10.0 mi SSE 9.2 mph 16.1 mph N/A   Overcast
5:34 PM 53.6 °F - 48.2 °F 82% 29.29 in 10.0 mi SSE 9.2 mph 17.3 mph N/A Rain Light Rain
5:55 PM 51.8 °F - 48.2 °F 88% 29.29 in 7.0 mi SSE 6.9 mph - N/A Rain Light Rain
6:14 PM 51.8 °F - 50.0 °F 94% 29.29 in 7.0 mi SSE 9.2 mph - N/A Rain Light Rain
6:34 PM 51.8 °F - 50.0 °F 94% 29.28 in 10.0 mi South 8.1 mph - N/A   Overcast
6:55 PM 53.6 °F - 50.0 °F 88% 29.28 in 10.0 mi South 10.4 mph 17.3 mph N/A   Mostly Cloudy
7:14 PM 51.8 °F - 46.4 °F 82% 29.30 in 5.0 mi SSW 12.7 mph 32.2 mph N/A Rain Rain
7:35 PM 51.8 °F - 46.4 °F 82% 29.31 in 10.0 mi SW 5.8 mph - N/A   Scattered Clouds
7:55 PM 51.8 °F - 50.0 °F 94% 29.32 in 10.0 mi West 5.8 mph - N/A   Mostly Cloudy
8:14 PM 51.8 °F - 46.4 °F 82% 29.32 in 10.0 mi WSW 9.2 mph 19.6 mph N/A   Overcast
8:35 PM 51.8 °F - 46.4 °F 82% 29.32 in 10.0 mi WSW 10.4 mph 16.1 mph N/A   Overcast
8:55 PM 51.8 °F - 46.4 °F 82% 29.33 in 10.0 mi WSW 6.9 mph - N/A   Overcast
9:14 PM 51.8 °F - 48.2 °F 88% 29.34 in 10.0 mi WSW 9.2 mph - N/A   Overcast
9:35 PM 51.8 °F - 50.0 °F 94% 29.35 in 10.0 mi SW 6.9 mph - N/A   Overcast
10:15 PM 51.8 °F - 48.2 °F 88% 29.37 in 10.0 mi WSW 13.8 mph 19.6 mph N/A   Scattered Clouds
10:35 PM 50.0 °F - 44.6 °F 82% 29.38 in 10.0 mi West 15.0 mph 24.2 mph N/A   Scattered Clouds
10:54 PM 50.0 °F - 44.6 °F 82% 29.39 in 10.0 mi West 9.2 mph 20.7 mph N/A   Mostly Cloudy
11:15 PM 46.4 °F 41.9 °F 44.6 °F 93% 29.41 in 10.0 mi West 9.2 mph - N/A   Scattered Clouds
11:34 PM 46.4 °F 42.9 °F 42.8 °F 87% 29.42 in 10.0 mi WSW 6.9 mph - N/A   Scattered Clouds
11:54 PM 46.4 °F 42.4 °F 44.6 °F 93% 29.44 in 10.0 mi WSW 8.1 mph - N/A   Mostly Cloudy